This demonstration page uses our WeatherBlox Daily Observations layout. Learn more.

Left ArrowRight Arrow

44.31136, -96.79839

Hourly Observations for September 4, 2021

Temp ( °F °C ) Dew Point ( °F °C ) Humidity (%) Winds ( mph kmh ) Pressure ( in mb ) Visibility ( mi km ) Precip ( " mm )
12:56 am 00:56 Partly Cloudy 56 13.3 55 12.8 97 97 NW 3 6 30.06 1018 10 16 0.00 0.00
1:56 am 01:56 Partly Cloudy 57 13.9 56 13.3 96 96 NNW 5 7 30.04 1017 10 16 0.00 0.00
2:56 am 02:56 Clear 57 13.9 56 13.3 96 96 Calm 30.01 1016 10 16 0.00 0.00
3:56 am 03:56 Clear 57 13.9 56 13.3 96 96 Calm 30.03 1017 10 16 0.00 0.00
4:42 am 04:42 Mostly Clear with Mist and Fog 55 13 55 13 100 100 Calm 29.99 1016 2 3 0.00 0.00
4:44 am 04:44 Mostly Cloudy with Mist and Fog 55 13 55 13 100 100 Calm 29.99 1016 1 2 0.00 0.00
4:48 am 04:48 Mostly Cloudy with Fog 55 13 55 13 100 100 Calm 29.99 1016 1 1 0.00 0.00
4:56 am 04:56 Mostly Cloudy with Mist and Fog 55 12.8 55 12.8 100 100 Calm 30.04 1017 1 1 0.00 0.00
4:59 am 04:59 Partly Cloudy with Mist and Fog 55 13 55 13 100 100 Calm 30.00 1016 1 2 0.00 0.00
5:02 am 05:02 Partly Cloudy with Mist and Fog 55 13 55 13 100 100 Calm 29.99 1016 3 5 0.00 0.00
5:56 am 05:56 Mostly Cloudy 57 13.9 56 13.3 96 96 Calm 30.04 1017 9 14 0.00 0.00
6:54 am 06:54 Mostly Cloudy with Mist and Fog 54 12 54 12 100 100 Calm 30.02 1017 3 4 0.00 0.00
6:56 am 06:56 Mostly Cloudy with Mist and Fog 54 12.2 54 12.2 100 100 Calm 30.05 1018 2 3 0.00 0.00
7:11 am 07:11 Cloudy with Mist and Fog 54 12 54 12 100 100 SSW 5 7 30.02 1017 1 2 0.00 0.00
7:14 am 07:14 Cloudy with Fog 54 12 54 12 100 100 SSW 3 6 30.02 1017 1 1 0.00 0.00
7:22 am 07:22 Cloudy with Fog 54 12 54 12 100 100 Calm 30.02 1017 0 0 0.00 0.00
7:47 am 07:47 Partly Cloudy with Fog 55 13 54 12 94 94 Calm 30.02 1017 N/A 0.00 0.00
7:56 am 07:56 Partly Cloudy with Fog 55 12.8 55 12.8 100 100 Calm 30.07 1018 N/A 0.00 0.00
8:20 am 08:20 Cloudy with Mist and Fog 55 13 55 13 100 100 Calm 30.03 1017 1 1 0.00 0.00
8:22 am 08:22 Cloudy with Mist and Fog 55 13 55 13 100 100 Calm 30.03 1017 2 2 0.00 0.00
8:25 am 08:25 Cloudy with Mist and Fog 55 13 55 13 100 100 NW 3 6 30.03 1017 3 5 0.00 0.00
8:56 am 08:56 Cloudy 59 15 57 13.9 93 93 W 3 6 30.07 1018 10 16 0.00 0.00
9:56 am 09:56 Mostly Cloudy 62 16.7 56 13.3 80 80 NNW 3 6 30.07 1018 10 16 0.00 0.00
10:56 am 10:56 Mostly Sunny 68 20 54 12.2 61 61 NW 7 11 30.07 1018 10 16 0.00 0.00
11:56 am 11:56 Mostly Sunny 70 21.1 54 12.2 57 57 NW 8 13 30.07 1018 10 16 0.00 0.00
12:56 pm 12:56 Sunny 71 21.7 52 11.1 51 51 W 10 17 30.05 1018 10 16 0.00 0.00
1:56 pm 13:56 Sunny 73 22.8 53 11.7 50 50 WNW 14 22 30.04 1017 10 16 0.00 0.00
2:56 pm 14:56 Mostly Sunny 73 22.8 52 11.1 48 48 W 12 19 30.03 1017 10 16 0.00 0.00
3:56 pm 15:56 Mostly Sunny 73 22.8 53 11.7 50 50 W 13 20 30.01 1016 10 16 0.00 0.00
4:56 pm 16:56 Sunny 74 23.3 51 10.6 45 45 WNW 14 22 30.01 1016 10 16 0.00 0.00
5:56 pm 17:56 Mostly Sunny 73 22.8 52 11.1 48 48 NW 12 19 30.00 1016 10 16 0.00 0.00
6:56 pm 18:56 Sunny 71 21.7 54 12.2 55 55 WNW 7 11 30.01 1016 10 16 0.00 0.00
7:56 pm 19:56 Sunny 68 20 53 11.7 59 59 W 6 9 30.01 1016 10 16 0.00 0.00
8:56 pm 20:56 Clear 63 17.2 53 11.7 70 70 W 3 6 30.01 1016 10 16 0.00 0.00
9:56 pm 21:56 Clear 61 16.1 53 11.7 75 75 Calm 30.03 1017 10 16 0.00 0.00
10:56 pm 22:56 Clear 59 15 53 11.7 81 81 W 3 6 30.02 1017 10 16 0.00 0.00
11:56 pm 23:56 Clear 57 13.9 52 11.1 83 83 W 3 6 30.02 1017 10 16 0.00 0.00

Powered by AerisWeather